This demonstration page uses our WeatherBlox Daily Observations layout. Learn more.

38.89511, -77.03637

Hourly Observations for June 6, 2018

Temp ( °F °C ) Dew Point ( °F °C ) Humidity (%) Winds ( mph kmh ) Pressure ( in mb ) Visibility ( mi km ) Precip ( " mm )
12:52 am 00:52 Partly Cloudy 69 20.6 54 12.2 59 59 WNW 7 11 29.74 1007 10 16.09344 0 0
1:52 am 01:52 Mostly Cloudy 68 20 54 12.2 61 61 WNW 8 13 29.74 1007 10 16.09344 0 0
2:52 am 02:52 Cloudy 69 20.6 54 12.2 59 59 NW 9 15 29.74 1007 10 16.09344 0 0
3:52 am 03:52 Cloudy 66 18.9 55 12.8 68 68 NNW 10 17 29.74 1007 10 16.09344 0 0
4:52 am 04:52 Mostly Cloudy 65 18.3 55 12.8 70 70 NNW 10 17 29.77 1008 10 16.09344 0 0
5:52 am 05:52 Mostly Cloudy 64 17.8 53 11.7 68 68 NNW 10 17 29.77 1008 10 16.09344 0 0
6:52 am 06:52 Mostly Sunny 63 17.2 53 11.7 70 70 NNW 13 20 29.8 1009 10 16.09344 0 0
7:52 am 07:52 Mostly Sunny 65 18.3 52 11.1 63 63 NNW 16 26 29.8 1009 10 16.09344 0 0
8:52 am 08:52 Mostly Sunny 67 19.4 54 12.2 63 63 NNW 9 15 29.83 1010 10 16.09344 0 0
9:52 am 09:52 Partly Cloudy 69 20.6 55 12.8 61 61 N 8 13 29.83 1010 10 16.09344 0 0
10:52 am 10:52 Mostly Cloudy 69 20.6 54 12.2 59 59 NNW 6 9 29.85 1011 10 16.09344 0 0
11:52 am 11:52 Mostly Cloudy 71 21.7 54 12.2 55 55 NW 8 13 29.85 1011 10 16.09344 0 0
12:52 pm 12:52 Mostly Cloudy 74 23.3 54 12.2 50 50 N 3 6 29.85 1011 10 16.09344 0 0
1:52 pm 13:52 Mostly Cloudy 77 25 54 12.2 45 45 N 7 11 29.85 1011 10 16.09344 0 0
2:52 pm 14:52 Mostly Cloudy 74 23.3 54 12.2 50 50 NNW 13 20 29.85 1011 10 16.09344 0 0
3:52 pm 15:52 Mostly Cloudy 77 25 55 12.8 47 47 NNW 13 20 29.85 1011 10 16.09344 0 0
4:52 pm 16:52 Partly Cloudy 74 23.3 54 12.2 50 50 NW 9 15 29.88 1012 10 16.09344 0 0
5:52 pm 17:52 Mostly Cloudy 73 22.8 56 13.3 55 55 N 16 26 29.91 1013 10 16.09344 0 0
6:52 pm 18:52 Mostly Cloudy 72 22.2 54 12.2 53 53 NE 8 13 29.91 1013 10 16.09344 0 0
7:52 pm 19:52 Mostly Cloudy 71 21.7 55 12.8 57 57 NNE 8 13 29.94 1014 10 16.09344 0 0
8:52 pm 20:52 Cloudy 69 20.6 56 13.3 63 63 N 10 17 29.94 1014 10 16.09344 0 0
9:52 pm 21:52 Cloudy 68 20 54 12.2 61 61 NNW 12 19 29.97 1015 10 16.09344 0 0
10:52 pm 22:52 Cloudy 67 19.4 52 11.1 59 59 N 9 15 30 1016 10 16.09344 0 0
11:52 pm 23:52 Mostly Cloudy 67 19.4 52 11.1 59 59 N 7 11 30 1016 10 16.09344 0 0

Powered by AerisWeather